Regional Weather Roundup
Issued by NWS Newport/Morehead, NC

Current Version | Previous Version | Graphics & Text | Print | Product List | Glossary On
Versions: 1 2 3 4 5 6 7 8 9 10 11 12 13 14 15 16 17 18 19 20 21 22 23 24 25 26 27 28 29 30 31 32 33 34 35 36 37 38 39 40 41 42 43 44 45 46 47 48 49 50
000
ASUS42 KMHX 051824
RWRMHX
WEATHER ROUNDUP FOR EASTERN NORTH CAROLINA
NATIONAL WEATHER SERVICE NEWPORT/MOREHEAD CITY NC
200 PM EDT TUE MAY 05 2015

NOTE: "FAIR" INDICATES FEW OR NO CLOUDS BELOW 12,000 FEET
WITH NO SIGNIFICANT WEATHER AND/OR OBSTRUCTIONS TO VISIBILITY

NCZ015>017-031-032-045>047-102-103-051900-
NORTH COAST

CITY           SKY/WX    TMP DP  RH WIND       PRES   REMARKS
EDENTON        SUNNY     80  54  40 S10       30.31F
ELIZABETH CITY SUNNY     79  52  38 SW15G23   30.31F
KITTY HAWK     CLEAR     78  44  30 S9G16     30.31F
MANTEO         SUNNY     74  51  43 S15G22    30.33F

$$

NCZ045>047-081-094-103-104-051900-
CENTRAL COAST

CITY           SKY/WX    TMP DP  RH WIND       PRES   REMARKS
FRISCO         SUNNY     73  56  54 S7        30.36F
SWANQUARTER      N/A     77 N/A N/A S7G16     30.30F

$$

NCZ095-097-098-100-101-051900-
SOUTHERN COAST

CITY           SKY/WX    TMP DP  RH WIND       PRES   REMARKS
BEAUFORT       SUNNY     76  50  40 SE12G17   30.35F
CEDAR ISLAND     N/A     77 N/A N/A SE13      30.39S
JACKSONVILLE   SUNNY     78  46  32 SE8       30.34F
PINEY ISLAND   CLEAR    N/A N/A N/A SE12      30.35F
WILMINGTON     SUNNY     75  52  44 SE10      30.35S


$$

NCZ011>013-027>030-043-044-078>080-089-090>093-098-051900-
COASTAL PLAIN

CITY           SKY/WX    TMP DP  RH WIND       PRES   REMARKS
AHOSKIE        SUNNY     79  54  41 S3        30.30F
CLINTON        SUNNY     79  53  40 CALM      30.32F
ELIZABETHTOWN  SUNNY     80  50  34 SE5       30.31F
GOLDSBORO      MOSUNNY   80  53  39 VRB5      30.29F
GREENVILLE     SUNNY     81  52  36 SE5       30.32F
HAVELOCK       MOSUNNY   78  46  32 S13       30.35
KENANSVILLE    SUNNY     78  48  33 SE5       30.33F
KINSTON        SUNNY     81  48  32 S8        30.33F
NEW BERN       SUNNY     80  47  31 SE8       30.34F
RICHLANDS      SUNNY     81  50  34 E8        30.34F
ROCKY MOUNT    SUNNY     81  55  40 S10       30.31F
WASHINGTON     SUNNY     79  51  37 SE8       30.32F
WHITEVILLE     MOSUNNY   78  53  40 NE3       30.31F

$$

AMZ130-135-150-152-154-156-158-170-250-252-270-ANZ085-086-088-633-658-670-051900-
MARINE OBSERVATIONS

STATION/POSITION TIME  TEMP    WIND        PRES    WAVE   SWELL
                       AIR SEA DIR/SP/G            HT/PER HT/PER
                 (UTC) (F)     (DEG/KT/KT) (MB)    (FT/S) (FT/S)
CHESAPEAKE LIGHT 1800   67     190/ 22/ 23 1025.7
64 E VA BEACH    1750   63 58  190/ 12/ 14 1026.5    2/11   2/11
DUCK             1800   74 55  170/ 11/ 14 1025.5
2 E DUCK         1711      60                N/A     2/11   2/11
OREGON INLET     1800   71 69  190/ 10/ 12 1027.5
13E OREGON INLT  1800      65                N/A     2/11   2/11
HATTERAS CG      1700   74 66  160/  4/  6 1028.0
DIAMOND BUOY     1750   72 77  160/ 10/ 14 1028.2    3/10   2/10
CAPE LOOKOUT     1800   71     130/  8/  8 1027.5
BEAUFORT LAB     1700   72 67  190/  7/ 10 1027.2
27 SE WRIGHTSVLE 1800   69 71  140/ 10/ 14   N/A
5 SE WRIGHTSVLE  1708   71 70  130/  8/ 10 1027.8
225 S CAPE HAT   1750   70 70  100/ 17/ 19 1026.8    6/ 6   2/11
41 SE CHARLESTON 1750   72 73   50/ 14/ 17 1025.7    3/ 6   2/12

$$



USA.gov is the U.S. government's official web portal to all federal, state and local government web resources and services.